Flight Track Log - Related Links

Times and Time Zones

All times are in EDT time to prevent confusion due to time zone crossing. See the SKW5631 flight status page for this flight to view local times or setup timezone preferences in your user account.

Time Position Orientation Groundspeed Altitude Reporting Facility
EDT Latitude Longitude Course Direction KTS MPH feet Rate Location/Type
Mon 03:56:16 PM 30.1511 -97.7658 291° West 249 287 4,800  Level Houston Center
Mon 03:57:18 PM 30.2122 -97.8228 321° Northwest 274 315 7,100 2,565 Climbing Houston Center
Mon 03:58:20 PM 30.2739 -97.8950 315° West 282 325 10,100 2,613 Climbing Houston Center
Mon 03:59:22 PM 30.3053 -97.9786 294° West 285 328 12,500 2,226 Climbing Houston Center
Mon 04:00:00 PM 30.5349 -98.0045 291° West  Level FlightAware Approximate
Mon 04:00:24 PM 30.3464 -98.0481 304° West 287 330 14,700  Level Houston Center
Mon 04:01:00 PM 30.5746 -98.1236 291° West  Level FlightAware Approximate
Mon 04:01:26 PM 30.4117 -98.1075 322° Northwest 293 337 16,400  Level Houston Center
Mon 04:02:28 PM 30.4856 -98.1689 324° Northwest 317 365 17,600 1,440 Climbing Houston Center
Mon 04:03:31 PM 30.5800 -98.2478 324° Northwest 348 400 19,400 1,680 Climbing Houston Center
Mon 04:04:33 PM 30.6644 -98.3175 325° Northwest 363 418 21,100 1,548 Climbing Houston Center
Mon 04:05:35 PM 30.7525 -98.3844 327° Northwest 370 426 22,600 1,306 Climbing Houston Center
Mon 04:06:37 PM 30.8378 -98.4622 322° Northwest 382 440 23,800 1,161 Climbing Houston Center
Mon 04:07:39 PM 30.9281 -98.5386 324° Northwest 392 451 25,000 1,258 Climbing Houston Center
Mon 04:08:41 PM 31.0194 -98.6136 325° Northwest 395 455 26,400 1,210 Climbing Houston Center
Mon 04:09:43 PM 31.1106 -98.6897 324° Northwest 398 458 27,500 1,016 Climbing Houston Center
Mon 04:10:45 PM 31.2192 -98.7811 324° Northwest 406 467 28,500 864 Climbing Houston Center
Mon 04:11:48 PM 31.3136 -98.8619 324° Northwest 413 475 29,300 864 Climbing Houston Center
Mon 04:12:50 PM 31.4111 -98.9436 324° Northwest 422 486 30,300 774 Climbing Houston Center
Mon 04:13:52 PM 31.4986 -99.0403 317° Northwest 426 490 30,900 677 Climbing Houston Center
Mon 04:14:54 PM 31.5825 -99.1417 314° West 429 494 31,700 787 Climbing Houston Center
Mon 04:15:54 PM 31.6633 -99.2414 314° West 425 489 32,500 950 Climbing Fort Worth Center
Mon 04:16:54 PM 31.7497 -99.3408 316° Northwest 430 495 33,600 1,000 Climbing Fort Worth Center
Mon 04:17:54 PM 31.8294 -99.4403 313° West 430 495 34,500 800 Climbing Fort Worth Center
Mon 04:18:54 PM 31.9114 -99.5400 314° West 425 489 35,200 650 Climbing Fort Worth Center
Mon 04:19:54 PM 31.9911 -99.6375 314° West 425 489 35,800 400 Climbing Fort Worth Center
Mon 04:20:54 PM 32.0728 -99.7350 315° West 420 483 36,000 100 Climbing Fort Worth Center
Mon 04:21:54 PM 32.1544 -99.8403 313° West 425 489 36,000  Level Fort Worth Center
Mon 04:22:54 PM 32.2481 -99.9558 314° West 430 495 36,000  Level Fort Worth Center
Mon 04:23:54 PM 32.3336 -100.0639 313° West 435 501 36,000  Level Fort Worth Center
Mon 04:24:54 PM 32.4189 -100.1672 314° West 435 501 36,000  Level Fort Worth Center
Mon 04:25:54 PM 32.5044 -100.2708 314° West 435 501 36,000  Level Fort Worth Center
Mon 04:26:54 PM 32.5875 -100.3769 313° West 435 501 36,000  Level Fort Worth Center
Mon 04:27:54 PM 32.6706 -100.4786 314° West 435 501 36,000  Level Fort Worth Center
Mon 04:28:54 PM 32.7536 -100.5825 314° West 435 501 36,000  Level Fort Worth Center
Mon 04:29:54 PM 32.8364 -100.6869 313° West 435 501 36,000  Level Fort Worth Center
Mon 04:30:54 PM 32.9172 -100.7889 313° West 429 494 36,000  Level Fort Worth Center
Mon 04:31:54 PM 32.9981 -100.8908 313° West 429 494 36,000  Level Fort Worth Center
Mon 04:32:54 PM 33.0625 -100.9728 313° West 429 494 36,000  Level Fort Worth Center
Mon 04:33:54 PM 33.1614 -101.0933 314° West 429 494 36,000  Level Fort Worth Center
Mon 04:34:54 PM 33.2436 -101.1986 313° West 424 488 36,000  Level Fort Worth Center
Mon 04:35:54 PM 33.3242 -101.2992 314° West 424 488 36,000  Level Fort Worth Center
Mon 04:36:54 PM 33.4022 -101.4069 311° West 424 488 36,000  Level Fort Worth Center
Mon 04:37:54 PM 33.4844 -101.5103 314° West 424 488 36,000  Level Fort Worth Center
Mon 04:38:54 PM 33.5625 -101.6111 313° West 424 488 36,000  Level Fort Worth Center
Mon 04:39:54 PM 33.6483 -101.7200 313° West 432 497 36,000  Level Fort Worth Center
Mon 04:40:54 PM 33.7261 -101.8239 312° West 423 487 36,000  Level Fort Worth Center
Mon 04:41:54 PM 33.8019 -101.9200 314° West 434 499 36,000  Level Fort Worth Center
Mon 04:42:54 PM 33.8878 -102.0322 313° West 423 487 36,000  Level Fort Worth Center
Mon 04:43:54 PM 33.9614 -102.1286 313° West 418 481 36,000  Level Fort Worth Center
Mon 04:44:54 PM 34.0467 -102.2436 312° West 418 481 36,000  Level Fort Worth Center
Mon 04:45:54 PM 34.1181 -102.3353 313° West 418 481 36,000  Level Fort Worth Center
Mon 04:46:21 PM 34.1517 -102.3797 312° West 426 490 36,000  Level Albuquerque Center
Mon 04:47:23 PM 34.2428 -102.5008 312° West 425 489 36,000  Level Albuquerque Center
Mon 04:48:25 PM 34.3225 -102.6067 312° West 425 489 36,000  Level Albuquerque Center
Mon 04:49:27 PM 34.4014 -102.7117 312° West 421 484 36,000  Level Albuquerque Center
Mon 04:50:29 PM 34.4803 -102.8175 312° West 421 484 36,000  Level Albuquerque Center
Mon 04:51:31 PM 34.5481 -102.9411 304° West 416 479 36,000  Level Albuquerque Center
Mon 04:52:33 PM 34.6106 -103.0606 302° West 416 479 36,000  Level Albuquerque Center
Mon 04:53:35 PM 34.6728 -103.1792 303° West 415 478 36,000  Level Albuquerque Center
Mon 04:54:37 PM 34.7447 -103.3189 302° West 414 476 36,000  Level Albuquerque Center
Mon 04:55:39 PM 34.8064 -103.4372 302° West 412 474 36,000  Level Albuquerque Center
Mon 04:56:41 PM 34.8681 -103.5561 302° West 412 474 36,000  Level Albuquerque Center
Mon 04:57:43 PM 34.9294 -103.6756 302° West 412 474 36,000  Level Albuquerque Center
Mon 04:58:45 PM 34.9906 -103.7964 302° West 414 476 36,000  Level Albuquerque Center
Mon 04:59:47 PM 35.0514 -103.9158 302° West 412 474 36,000  Level Albuquerque Center
Mon 05:00:49 PM 35.1183 -104.0475 302° West 414 476 36,000  Level Albuquerque Center
Mon 05:01:51 PM 35.1783 -104.1672 302° West 413 475 36,000  Level Albuquerque Center
Mon 05:02:53 PM 35.2381 -104.2853 302° West 409 471 36,000  Level Albuquerque Center
Mon 05:03:55 PM 35.2975 -104.4042 302° West 411 473 36,000  Level Albuquerque Center
Mon 05:04:57 PM 35.3567 -104.5258 301° West 407 468 36,000  Level Albuquerque Center
Mon 05:05:59 PM 35.4258 -104.6664 301° West 408 470 36,000  Level Albuquerque Center
Mon 05:07:01 PM 35.4861 -104.7872 302° West 411 473 36,000  Level Albuquerque Center
Mon 05:08:03 PM 35.5472 -104.9103 301° West 416 479 36,000  Level Albuquerque Center
Mon 05:09:05 PM 35.6069 -105.0347 301° West 420 483 36,000  Level Albuquerque Center
Mon 05:10:07 PM 35.6675 -105.1586 301° West 418 481 36,000  Level Albuquerque Center
Mon 05:11:09 PM 35.7172 -105.2908 295° West 422 486 36,000  Level Albuquerque Center
Mon 05:12:11 PM 35.7683 -105.4219 296° West 422 486 36,000  Level Albuquerque Center
Mon 05:13:12 PM 35.8181 -105.5533 295° West 423 487 36,000  Level Albuquerque Center
Mon 05:14:14 PM 35.8686 -105.6828 296° West 422 486 36,000  Level Albuquerque Center
Mon 05:15:16 PM 35.9275 -105.8386 295° West 421 484 36,000  Level Albuquerque Center
Mon 05:16:18 PM 35.9767 -105.9692 295° West 420 483 36,000  Level Albuquerque Center
Mon 05:17:20 PM 36.0256 -106.0978 295° West 419 482 36,000  Level Albuquerque Center
Mon 05:18:22 PM 36.0739 -106.2289 295° West 419 482 36,000  Level Albuquerque Center
Mon 05:19:24 PM 36.1231 -106.3606 295° West 422 486 36,000  Level Albuquerque Center
Mon 05:20:26 PM 36.1714 -106.4925 294° West 422 486 36,000  Level Albuquerque Center
Mon 05:21:28 PM 36.2294 -106.6469 295° West 416 479 36,000  Level Albuquerque Center
Mon 05:22:30 PM 36.2744 -106.7714 294° West 416 479 36,000  Level Albuquerque Center
Mon 05:24:34 PM 36.3731 -107.0428 294° West 417 480 36,000  Level Albuquerque Center
Mon 05:25:36 PM 36.4267 -107.1892 295° West 417 480 36,000  Level Albuquerque Center
Mon 05:26:38 PM 36.4711 -107.3156 294° West 418 481 36,000  Level Albuquerque Center
Mon 05:27:40 PM 36.5247 -107.4633 294° West 420 483 36,000  Level Albuquerque Center
Mon 05:28:41 PM 36.5700 -107.5881 294° West 417 480 36,000  Level Albuquerque Center
Mon 05:29:40 PM 36.6133 -107.7139 293° West 420 483 36,000  Level Denver Center
Mon 05:30:42 PM 36.6656 -107.8611 294° West 418 481 36,000  Level Denver Center
Mon 05:31:44 PM 36.7100 -107.9886 294° West 420 483 36,000  Level Denver Center
Mon 05:32:46 PM 36.7617 -108.1353 294° West 415 478 36,000  Level Denver Center
Mon 05:34:00 PM 36.8081 -108.2639 294° West 424 488 36,000  Level Denver Center
Mon 05:35:02 PM 36.8678 -108.4325 294° West 419 482 36,000  Level Denver Center
Mon 05:36:04 PM 36.9122 -108.5614 293° West 421 484 36,000  Level Denver Center
Mon 05:37:06 PM 36.9644 -108.7108 294° West 421 484 36,000  Level Denver Center
Mon 05:38:08 PM 37.0094 -108.8397 294° West 423 487 36,000  Level Denver Center
Mon 05:39:10 PM 37.0617 -108.9897 294° West 423 487 36,000  Level Denver Center
Mon 05:40:12 PM 37.1067 -109.1197 293° West 427 491 36,000  Level Denver Center
Mon 05:41:14 PM 37.1589 -109.2717 293° West 427 491 36,000  Level Denver Center
Mon 05:42:15 PM 37.2031 -109.4011 293° West 423 487 36,000  Level Denver Center
Mon 05:43:17 PM 37.2547 -109.5506 294° West 420 483 36,000  Level Denver Center
Mon 05:44:19 PM 37.2992 -109.6817 293° West 424 488 36,000  Level Denver Center
Mon 05:45:21 PM 37.3508 -109.8339 293° West 425 489 36,000  Level Denver Center
Mon 05:46:23 PM 37.3933 -109.9647 292° West 424 488 36,000  Level Denver Center
Mon 05:47:25 PM 37.4453 -110.1172 293° West 425 489 36,000  Level Denver Center
Mon 05:48:27 PM 37.4894 -110.2492 293° West 426 490 36,000  Level Denver Center
Mon 05:49:29 PM 37.5322 -110.3814 292° West 427 491 36,000  Level Denver Center
Mon 05:50:31 PM 37.5817 -110.5353 292° West 427 491 36,000  Level Denver Center
Mon 05:51:33 PM 37.6286 -110.6747 293° West 432 497 36,000  Level Denver Center
Mon 05:52:35 PM 37.6728 -110.8142 292° West 431 496 36,000  Level Denver Center
Mon 05:53:37 PM 37.7189 -110.9536 293° West 430 495 36,000  Level Denver Center
Mon 05:54:39 PM 37.7722 -111.1189 292° West 426 490 36,000  Level Denver Center
Mon 05:54:58 PM 37.7806 -111.1469 291° West 427 491 36,000  Level Salt Lake Center
Mon 05:56:00 PM 37.8247 -111.2833 292° West 423 487 36,000  Level Salt Lake Center
Mon 05:57:01 PM 37.8686 -111.4200 292° West 421 484 36,000  Level Salt Lake Center
Mon 05:57:44 PM 37.9036 -111.5297 292° West 421 484 36,000  Level Denver Center
Mon 05:58:03 PM 37.9219 -111.5842 293° West 420 483 36,000  Level Salt Lake Center
Mon 05:59:05 PM 37.9619 -111.7183 291° West 411 473 36,000  Level Salt Lake Center
Mon 06:00:06 PM 38.0047 -111.8528 292° West 411 473 36,000  Level Salt Lake Center
Mon 06:01:08 PM 38.0486 -111.9892 292° West 417 480 36,000  Level Salt Lake Center
Mon 06:02:10 PM 38.0764 -112.1289 284° West 416 479 36,000  Level Salt Lake Center
Mon 06:03:11 PM 38.0881 -112.2758 276° West 419 482 36,000  Level Salt Lake Center
Mon 06:04:13 PM 38.1042 -112.4508 277° West 419 482 36,000  Level Salt Lake Center
Mon 06:05:14 PM 38.1161 -112.5958 276° West 418 481 36,000  Level Salt Lake Center
Mon 06:06:16 PM 38.1289 -112.7419 276° West 419 482 36,000  Level Salt Lake Center
Mon 06:07:17 PM 38.1400 -112.8881 276° West 420 483 36,000  Level Salt Lake Center
Mon 06:08:19 PM 38.1514 -113.0350 276° West 421 484 36,000  Level Salt Lake Center
Mon 06:09:20 PM 38.1633 -113.1819 276° West 421 484 36,000  Level Salt Lake Center
Mon 06:10:22 PM 38.1742 -113.3283 275° West 420 483 36,000  Level Salt Lake Center
Mon 06:11:24 PM 38.1883 -113.5042 276° West 420 483 36,000  Level Salt Lake Center
Mon 06:12:25 PM 38.1983 -113.6500 275° West 418 481 36,000  Level Salt Lake Center
Mon 06:13:27 PM 38.2089 -113.7969 275° West 419 482 36,000  Level Salt Lake Center
Mon 06:14:28 PM 38.2197 -113.9461 275° West 423 487 36,000  Level Salt Lake Center
Mon 06:15:30 PM 38.2303 -114.0939 275° West 422 486 36,000  Level Salt Lake Center
Mon 06:16:31 PM 38.2414 -114.2414 276° West 421 484 36,000  Level Salt Lake Center
Mon 06:17:33 PM 38.2494 -114.3864 274° West 415 478 36,000  Level Salt Lake Center
Mon 06:18:35 PM 38.2394 -114.5633 266° West 417 480 36,000  Level Salt Lake Center
Mon 06:19:36 PM 38.2314 -114.7117 266° West 420 483 36,000  Level Salt Lake Center
Mon 06:20:38 PM 38.2231 -114.8603 266° West 422 486 36,000  Level Salt Lake Center
Mon 06:21:39 PM 38.2128 -115.0106 265° West 427 491 36,000  Level Salt Lake Center
Mon 06:22:41 PM 38.2036 -115.1617 266° West 430 495 36,000  Level Salt Lake Center
Mon 06:23:43 PM 38.1933 -115.3142 265° West 434 499 36,000  Level Salt Lake Center
Mon 06:24:44 PM 38.1825 -115.4656 265° West 435 501 36,000  Level Salt Lake Center
Mon 06:25:46 PM 38.1703 -115.6500 265° West 436 502 36,000  Level Salt Lake Center
Mon 06:26:47 PM 38.1603 -115.7989 265° West 428 493 36,000  Level Salt Lake Center
Mon 06:27:49 PM 38.1489 -115.9497 265° West 428 493 36,000  Level Salt Lake Center
Mon 06:28:50 PM 38.1378 -116.1000 265° West 427 491 36,000  Level Salt Lake Center
Mon 06:29:52 PM 38.1267 -116.2506 265° West 428 493 36,000  Level Salt Lake Center
Mon 06:30:53 PM 38.1153 -116.4011 265° West 429 494 36,000  Level Salt Lake Center
Mon 06:31:55 PM 38.1039 -116.5511 265° West 427 491 36,000  Level Salt Lake Center
Mon 06:32:56 PM 38.0922 -116.7006 264° West 426 490 36,000  Level Salt Lake Center
Mon 06:33:58 PM 38.0803 -116.8519 264° West 430 495 36,000  Level Salt Lake Center
Mon 06:35:00 PM 38.0658 -117.0325 264° West 426 490 36,000  Level Salt Lake Center
Mon 06:36:01 PM 38.0550 -117.1553 264° West 427 491 36,000  Level Salt Lake Center
Mon 06:37:12 PM 38.0400 -117.3442 264° West 434 499 36,000  Level Oakland Center
Mon 06:38:13 PM 38.0272 -117.4961 264° West 430 495 36,000  Level Oakland Center
Mon 06:39:14 PM 38.0144 -117.6481 264° West 431 496 36,000  Level Oakland Center
Mon 06:40:15 PM 38.0011 -117.8003 264° West 433 498 36,000  Level Oakland Center
Mon 06:41:16 PM 37.9819 -117.9819 262° West 434 499 36,000  Level Oakland Center
Mon 06:42:18 PM 37.9647 -118.1339 262° West 434 499 36,000  Level Oakland Center
Mon 06:43:19 PM 37.9486 -118.2853 262° West 434 499 36,000  Level Oakland Center
Mon 06:44:20 PM 37.9311 -118.4367 262° West 434 499 36,000  Level Oakland Center
Mon 06:45:21 PM 37.9144 -118.5894 262° West 437 503 36,000  Level Oakland Center
Mon 06:46:22 PM 37.8978 -118.7408 262° West 435 501 36,000  Level Oakland Center
Mon 06:47:23 PM 37.8831 -118.8942 263° West 436 502 36,000  Level Oakland Center
Mon 06:48:25 PM 37.8639 -119.0514 261° West 440 506 36,000  Level Oakland Center
Mon 06:49:26 PM 37.8444 -119.2044 261° West 440 506 36,000  Level Oakland Center
Mon 06:50:27 PM 37.8275 -119.3581 262° West 444 511 36,000  Level Oakland Center
Mon 06:51:28 PM 37.8114 -119.5092 262° West 435 501 36,000  Level Oakland Center
Mon 06:52:29 PM 37.7925 -119.6628 261° West 440 506 36,000  Level Oakland Center
Mon 06:53:30 PM 37.7736 -119.8158 261° West 441 507 36,000  Level Oakland Center
Mon 06:54:32 PM 37.7547 -119.9694 261° West 442 509 36,000  Level Oakland Center
Mon 06:55:33 PM 37.7317 -120.1539 261° West 442 509 36,000 -443 Level Oakland Center
Mon 06:56:34 PM 37.7131 -120.3083 261° West 444 511 35,100 -1,869 Descending Oakland Center
Mon 06:57:35 PM 37.6922 -120.4692 261° West 459 528 32,200 -2,902 Descending Oakland Center
Mon 06:58:36 PM 37.6711 -120.6311 261° West 465 535 29,200 -2,878 Descending Oakland Center
Mon 06:59:13 PM 37.6500 -120.7333 255° West 465 535 27,500 -2,904 Descending Northern Cal TRACON
Mon 07:01:13 PM 37.6167 -121.0333 262° West 448 516 21,600 -2,967 Descending Northern Cal TRACON
Mon 07:02:13 PM 37.6000 -121.2000 263° West 422 486 18,600 -2,338 Descending Northern Cal TRACON
Mon 07:05:00 PM 37.5709 -121.3830 261° West  Level FlightAware Approximate
Mon 07:05:45 PM 37.5286 -121.6456 261° West 378 435 11,000  Level Oakland Center
Mon 07:06:13 PM 37.5167 -121.7167 258° West 355 409 10,500 -1,073 Descending Northern Cal TRACON
Mon 07:07:48 PM 37.4894 -121.8581 256° West 293 337 8,800 -1,000 Descending Oakland Center
Mon 07:08:49 PM 37.4817 -121.9492 264° West 275 316 7,900 -1,271 Descending Oakland Center
Mon 07:09:13 PM 37.5000 -122.0000 294° West 249 287 7,000 -1,623 Descending Northern Cal TRACON
Mon 07:10:51 PM 37.5350 -122.1122 291° West 253 291 4,600 -1,450 Descending Oakland Center
Mon 07:11:13 PM 37.5500 -122.1500 297° West 234 269 4,100 -787 Descending Northern Cal TRACON
Mon 07:11:52 PM 37.5578 -122.1858 285° West 236 272 3,800 -462 Descending Oakland Center

Login

Don't have an account? Register now (free) for customized features, flight alerts, and more!